| time (UTC) | temp C | wind direction | speed KPH | gust KPH | rain 1hr cm | rain 24hr cm | rain mn cm | humidity % | barometer mb |
| 20260507150103 | 15 | 69 | 3.2 | 11.3 | 0.00 | 0.08 | 0.00 | 44 | 1011.8 |
| 20260507145035 | 15 | 57 | 4.8 | 12.9 | 0.00 | 0.08 | 0.00 | 44 | 1011.8 |
| 20260507144008 | 16 | 59 | 1.6 | 16.1 | 0.00 | 0.08 | 0.00 | 43 | 1011.8 |
| 20260507142945 | 16 | 90 | 4.8 | 16.1 | 0.00 | 0.08 | 0.00 | 43 | 1011.8 |
| 20260507142002 | 15 | 43 | 1.6 | 14.5 | 0.00 | 0.08 | 0.00 | 43 | 1011.8 |
| 20260507140926 | 15 | 36 | 3.2 | 12.9 | 0.00 | 0.08 | 0.00 | 40 | 1012.0 |
| 20260507135900 | 15 | 39 | 3.2 | 11.3 | 0.00 | 0.08 | 0.00 | 42 | 1012.0 |
| 20260507134827 | 16 | 66 | 4.8 | 11.3 | 0.00 | 0.08 | 0.00 | 43 | 1012.1 |
| 20260507133753 | 16 | 59 | 1.6 | 11.3 | 0.00 | 0.08 | 0.00 | 47 | 1012.2 |
| 20260507130439 | 14 | 59 | 4.8 | 11.3 | 0.00 | 0.36 | 0.00 | 50 | 1012.6 |
| 20260507124249 | 13 | 43 | 3.2 | 9.7 | 0.00 | 0.56 | 0.00 | 53 | 1012.6 |
| 20260507122110 | 13 | 98 | 4.8 | 16.1 | 0.00 | 0.66 | 0.00 | 52 | 1012.7 |
| 20260507121121 | 14 | 59 | 3.2 | 16.1 | 0.00 | 0.66 | 0.00 | 51 | 1012.7 |
| 20260507120049 | 13 | 85 | 4.8 | 11.3 | 0.00 | 0.66 | 0.00 | 54 | 1012.8 |
| 20260507115044 | 13 | 59 | 4.8 | 14.5 | 0.00 | 0.66 | 0.00 | 54 | 1012.8 |
| 20260507114055 | 13 | 77 | 4.8 | 16.1 | 0.00 | 0.69 | 0.00 | 55 | 1012.9 |
| 20260507113037 | 13 | 55 | 4.8 | 14.5 | 0.00 | 0.69 | 0.00 | 54 | 1013.0 |
| 20260507112044 | 12 | 47 | 4.8 | 12.9 | 0.00 | 0.69 | 0.00 | 56 | 1013.1 |
| 20260507105927 | 12 | 24 | 8.0 | 16.1 | 0.00 | 0.69 | 0.00 | 59 | 1013.3 |
| 20260507104905 | 12 | 30 | 6.4 | 16.1 | 0.00 | 0.69 | 0.00 | 58 | 1013.4 |
| 20260507103837 | 11 | 42 | 6.4 | 16.1 | 0.00 | 0.69 | 0.00 | 59 | 1013.4 |
| 20260507101641 | 12 | 23 | 6.4 | 16.1 | 0.00 | 0.69 | 0.00 | 58 | 1013.5 |
| 20260507100629 | 11 | 81 | 4.8 | 16.1 | 0.00 | 0.69 | 0.00 | 59 | 1013.6 |
| 20260507095611 | 11 | 55 | 3.2 | 11.3 | 0.00 | 0.69 | 0.00 | 59 | 1013.7 |
| 20260507094545 | 11 | 31 | 4.8 | 17.7 | 0.00 | 0.69 | 0.00 | 60 | 1013.6 |
| 20260507093527 | 11 | 64 | 6.4 | 17.7 | 0.00 | 0.69 | 0.00 | 60 | 1013.5 |
| 20260507092532 | 11 | 355 | 6.4 | 14.5 | 0.00 | 0.69 | 0.00 | 61 | 1013.5 |
| 20260507090337 | 11 | 48 | 4.8 | 16.1 | 0.00 | 0.69 | 0.00 | 65 | 1013.5 |
| 20260507084221 | 10 | 10 | 4.8 | 12.9 | 0.00 | 0.69 | 0.00 | 67 | 1013.5 |
| 20260507083149 | 10 | 49 | 3.2 | 12.9 | 0.00 | 0.69 | 0.00 | 68 | 1013.5 |
| 20260507082125 | 10 | 24 | 1.6 | 12.9 | 0.00 | 0.69 | 0.00 | 68 | 1013.5 |
| 20260507081149 | 10 | 72 | 1.6 | 8.0 | 0.00 | 0.69 | 0.00 | 75 | 1013.6 |
| 20260507074941 | 8 | 69 | 0.0 | 8.0 | 0.00 | 0.69 | 0.00 | 79 | 1013.6 |
| 20260507073955 | 8 | 98 | 0.0 | 4.8 | 0.00 | 0.69 | 0.00 | 80 | 1013.7 |
| 20260507072950 | 7 | 78 | 0.0 | 0.0 | 0.00 | 0.71 | 0.00 | 78 | 1013.7 |
| 20260507071912 | 7 | 94 | 0.0 | 0.0 | 0.00 | 0.71 | 0.00 | 82 | 1013.7 |
| 20260507070913 | 7 | 95 | 0.0 | 0.0 | 0.00 | 0.71 | 0.00 | 82 | 1013.8 |
| 20260507065928 | 7 | 115 | 0.0 | 0.0 | 0.00 | 0.74 | 0.00 | 85 | 1013.8 |
| 20260507064925 | 7 | 126 | 0.0 | 0.0 | 0.00 | 0.74 | 0.00 | 85 | 1013.8 |
| 20260507063918 | 6 | 126 | 0.0 | 0.0 | 0.00 | 0.76 | 0.00 | 86 | 1013.8 |
| 20260507062846 | 6 | 126 | 0.0 | 0.0 | 0.00 | 0.81 | 0.00 | 87 | 1013.7 |
| 20260507061825 | 6 | 126 | 0.0 | 0.0 | 0.00 | 0.84 | 0.00 | 88 | 1013.6 |
| 20260507055710 | 6 | 46 | 0.0 | 0.0 | 0.00 | 0.89 | 0.00 | 89 | 1013.5 |
| 20260507054631 | 5 | 46 | 0.0 | 0.0 | 0.00 | 0.89 | 0.00 | 89 | 1013.4 |
| 20260507052520 | 5 | 46 | 0.0 | 0.0 | 0.00 | 0.89 | 0.00 | 90 | 1013.3 |
| 20260507051511 | 5 | 46 | 0.0 | 0.0 | 0.00 | 0.89 | 0.00 | 91 | 1013.0 |
| 20260507050530 | 4 | 46 | 0.0 | 0.0 | 0.00 | 0.89 | 0.00 | 92 | 1012.9 |
| 20260507044340 | 4 | 46 | 0.0 | 0.0 | 0.00 | 0.89 | 0.00 | 92 | 1012.8 |
| 20260507043307 | 4 | 46 | 0.0 | 0.0 | 0.00 | 0.89 | 0.00 | 92 | 1012.6 |
| 20260507042314 | 4 | 46 | 0.0 | 0.0 | 0.00 | 0.89 | 0.00 | 92 | 1012.5 |
| 20260507041316 | 4 | 46 | 0.0 | 0.0 | 0.00 | 0.89 | 0.00 | 92 | 1012.4 |
| 20260507040311 | 4 | 46 | 0.0 | 0.0 | 0.00 | 0.89 | 0.00 | 92 | 1012.3 |